Tracking 20383 objects as of 23-Feb-2020
HD Live streaming from Space Station
objects crossing your sky now
Track the group of recently launched Starlink satellites

GGSE 5

Track GGSE 5 now!
10-day predictions
GGSE 5 is classified as:


NORAD ID: 2834
Int'l Code: 1967-053D
Perigee: 908.4 km
Apogee: 922.5 km
Inclination: 70.0 °
Period: 103.2 minutes
Semi major axis: 7286 km
RCS: 0.7606 m2 (medium)
Launch date: May 31, 1967
Source: United States (US)
Launch site: AIR FORCE WESTERN TEST RANGE (AFWTR)
aabbcc
Your satellite tracking list
Your tracking list is empty




NASA's NSSDC Master Catalog

Two Line Element Set (TLE):
1  2834U 67053D   20054.34215653 -.00000030  00000-0  17084-4 0  9996
2  2834  69.9739  28.5260 0009676 304.8024  55.2171 13.95817137684930
Source of the keplerian elements: AFSPC